Regional Weather Roundup
Issued by NWS

Home | Current Version | Previous Version | Graphics & Text | Print | Product List | Glossary On
Versions: 1 2 3 4 5 6 7 8 9 10 11 12 13 14 15 16 17 18 19 20 21 22 23 24 25 26 27 28
000
ASUS45 KTFX 112310
RWRMT
MONTANA REGIONAL WEATHER ROUNDUP
NATIONAL WEATHER SERVICE GREAT FALLS MT
400 PM MST MON DEC 11 2017

NOTE: "FAIR" INDICATES FEW OR NO CLOUDS BELOW 12000 FEET WITH NO
SIGNIFICANT WEATHER AND/OR OBSTRUCTIONS TO VISIBILITY.

MTZ001>007-043-120000-
WEST OF THE DIVIDE

CITY           SKY/WX    TMP DP  RH WIND       PRES   REMARKS
KALISPELL      CLOUDY    24  20  84 SW3       30.59S
MISSOULA       CLOUDY    21  19  92 SW3       30.56S FOG
BUTTE          FAIR      36  16  44 S5        30.46S
MULLAN PASS    FAIR      44   4  19 SW5       30.46R
ANACONDA         N/A     36  19  51 CALM      30.47S
DEER LODGE       N/A     28  19  69 CALM      30.50S
EUREKA           N/A     25  18  74 MISG      30.63S
HAMILTON         N/A     19  18  93 CALM      30.53F
LIBBY            N/A     28  21  74 CALM      30.60S
PLAINS           N/A     30  20  66 CALM      30.56
RONAN            N/A     26  23  88 CALM      30.56S
$$

MTZ008-052>055-120000-
SOUTHWEST MONTANA

CITY           SKY/WX    TMP DP  RH WIND       PRES   REMARKS
BOZEMAN        FAIR      31  19  61 CALM      30.47S
DILLON         FAIR      37  19  48 SW7       30.46S WCI  32
W YELLOWSTONE  FAIR      28  10  47 NE5       30.53S
ENNIS          CLOUDY    36  23  60 CALM      30.50S
THREE FORKS      N/A     24  17  74 CALM      30.41S
TWIN BRIDGES     N/A     40  11  30 CALM      30.39F
$$

MTZ009-010-012-014-046-048-049-054-120000-
EAST SLOPES AND CENTRAL MONTANA

CITY           SKY/WX    TMP DP  RH WIND       PRES   REMARKS
CUT BANK       FAIR      40  18  41 S6        30.33F
GREAT FALLS    FAIR      47  13  25 SW12      30.36F
MALMSTROM AFB  FAIR      40  19  41 SW15      30.35F
HELENA         FAIR      29  21  72 NE3       30.47S
BOWMANS CRNR   FAIR      41  12  30 S16       30.35S
CHOTEAU          N/A     46  19  34 SE8       30.35F
FAIRFIELD      FAIR      45  15  29 S6        30.34S
POWER          FAIR      41  17  37 S3        30.34S
RAYNESFORD     FAIR      45  21  38 SW9       30.35F
ULM            FAIR      47  13  25 S10       30.36S
$$

MTZ011-013-016-021-045-047-050-051-120000-
NORTH CENTRAL MONTANA

CITY           SKY/WX    TMP DP  RH WIND       PRES   REMARKS
HAVRE          FAIR      40  21  46 CALM      30.37S
LEWISTOWN      FAIR      46  20  35 CALM      30.37S
N BAR RANCH    FAIR      41  18  38 E6        30.40R
CHINOOK          N/A     43  19  39 CALM      30.37F
DENTON         FAIR      44  19  37 S5        30.34S
GEYSER         FAIR      44  21  38 S7        30.35F
GRASS RANGE    FAIR      41  21  45 E6        30.35R
STANFORD       FAIR      40  20  45 SW5       30.37S
WINIFRED       FAIR      45  15  30 SE6       30.36S
$$

MTZ017>020-022>027-061-062-120000-
NORTHEAST MONTANA

CITY           SKY/WX    TMP DP  RH WIND       PRES   REMARKS
GLASGOW        FAIR      35  25  66 NW7       30.38S WCI  29
GLENDIVE       FAIR      36  25  64 W10       30.38R WCI  28
JORDAN           N/A     38  22  52 N5        30.39S
SIDNEY         CLOUDY    37  29  72 NW3       30.37S
WOLF POINT     FAIR      39  27  62 W9        30.38F
MALTA          CLEAR     39  21  48 W5        30.38S
PLENTYWOOD       N/A     34  28  80 CALM      30.34S
POPLAR           N/A     39  27  60 NW7       30.38S
SCOBEY           N/A     35  23  62 W6        30.30  WCI  30
$$

MTZ028>42-056>058-120000-
SOUTHCENTRAL AND SOUTHEAST MONTANA

CITY           SKY/WX    TMP DP  RH WIND       PRES   REMARKS
BAKER          CLOUDY    36  27  69 NW15      30.37S WCI  27
BILLINGS       FAIR      47  17  30 CALM      30.39F
LIVINGSTON     FAIR      41  17  38 W15       30.41S
MILES CITY     FAIR      39  26  59 NW6       30.40S
BIG TIMBER     CLEAR     48  10  21 SW22G29   30.39R
EKALAKA          N/A     32  22  67 W7        30.31R WCI  26
FORSYTH          N/A     43  21  42 CALM      30.40S
LAUREL           N/A     46  18  31 W3        30.40S
ROUNDUP          N/A     47  14  26 E2        30.27S
$$

REGIONAL REPORTS...DAKOTAS

CITY           SKY/WX    TMP DP  RH WIND       PRES   REMARKS
WILLISTON      CLOUDY    36  29  75 W5        30.35S
MINOT          FAIR      28  20  71 W5        30.31R
DICKINSON      CLOUDY    34  31  88 NW12      30.31R WCI  25
BEACH          CLOUDY    36  25  64 NW13      30.38S WCI  27
CROSBY         CLOUDY    32  28  86 NW10      30.33S WCI  24
TIOGA          FAIR      30  28  93 NW12G18   30.32S WCI  21
WATFORD CITY   CLOUDY    34  28  80 W7        30.34S WCI  28
BISMARCK       FAIR      30  21  69 N6        30.33R WCI  24
GRAND FORKS    FAIR      12   7  80 N14       30.32R WCI  -3
FARGO          FAIR      15   9  76 N17       30.30R WCI  -1
BUFFALO SD       N/A     37  26  64 NW17      30.30R WCI  27
RAPID CITY     FAIR      39  22  50 N24G35    30.34R WCI  28
$$

REGIONAL REPORTS...WYOMING/IDAHO/WASHINGTON

CITY           SKY/WX    TMP DP  RH WIND       PRES   REMARKS
GILLETTE       FAIR      39  15  37 NW6       30.39R
SHERIDAN       FAIR      44  18  35 NW7       30.40S
BUFFALO WY     FAIR      44  14  29 NW5       30.41R
CODY           FAIR      46  10  23 E5        30.42F
YELLOWSTONE LA   N/A     28  21  75 CALM      30.54S
IDAHO FALLS    FAIR      29  23  78 CALM      30.54F
SALMON         CLOUDY    18  13  80 CALM      30.68F
BOISE          CLOUDY    25  21  85 NW6       30.64S WCI  18
SPOKANE        FAIR      29  25  85 S3        30.54S
$$

REGIONAL REPORTS...ALBERTA

CITY           SKY/WX    TMP DP  RH WIND       PRES   REMARKS
EDMONTON       MOCLDY    39  23  52 SW9       30.17F
CALGARY        MOCLDY    48  16  27 SW6       30.27F
LETHBRIDGE     MOCLDY    43  25  49 E2        30.30F
MEDICINE HAT   PTCLDY    39  25  56 S5        30.32F
$$

REGIONAL REPORTS...SASKATCHEWAN

CITY           SKY/WX    TMP DP  RH WIND       PRES   REMARKS
SWIFT CURRENT  CLEAR     34  23  64 W12       30.30F WCI  25
REGINA         PTCLDY    30  28  93 SW6       30.28S WCI  24
SASKATOON      PTCLDY    28  25  86 SW10G17   30.27S WCI  19
$$




USA.gov is the U.S. government's official web portal to all federal, state and local government web resources and services.